Location: Changilari
(41.9419°N, 44.5184°E)
Time: 02:48:29
(UTC+00:00)

Daily predictions for brighter satellites

Satellite Brightness Start Highest point End
(mag) Time Altitude Azimuth Time Altitude Azimuth Time Altitude Azimuth
USA 234 3.4 00:09:11 10° NE 00:15:24 67° ESE 00:15:24 67° ESE
ATLAS CENTAUR R/B 4.0 00:23:45 15° ESE 00:23:45 15° ESE 00:26:02 10° ENE
ARIANE 5 R/B 3.8 00:22:22 10° NNE 00:25:02 32° NNE 00:25:02 32° NNE
ATLAS 5 CENTAUR R/B 2.5 00:30:48 69° ESE 00:30:48 69° ESE 00:36:47 10° SE
SL-4 R/B 4.2 00:34:13 23° NNE 00:34:13 23° NNE 00:36:07 10° NE
Cosmos 1833 Rocket 3.2 00:33:35 54° NNE 00:33:35 54° NNE 00:37:52 10° NNE
ATLAS 2AS CENTAUR R/B 4.2 00:35:05 25° NNW 00:35:05 25° NNW 00:41:02 10° NNE
Meteor 1-13 Rocket 4.4 00:41:54 62° N 00:41:54 62° N 00:46:33 10° N
DELTA 2 R/B (1) 4.0 00:42:27 53° SE 00:42:27 53° SE 00:46:53 10° ESE
CZ-4B R/B 3.6 00:39:29 10° NNE 00:44:47 75° ESE 00:44:51 75° ESE
Cosmos 2184 Rocket 3.8 00:40:01 10° N 00:46:13 84° W 00:52:25 10° S
Cosmos 2360 4.2 00:45:40 45° NNW 00:47:30 78° ENE 00:53:13 10° SSE
Cosmos 1980 Rocket 3.1 00:44:42 10° NNW 00:50:14 48° ENE 00:55:42 10° SE
Lacrosse 5 rocket 3.5 00:50:01 18° SE 00:51:10 20° ESE 00:54:21 10° ENE
ALOS 2.5 00:46:41 10° NNE 00:51:20 65° E 00:51:36 63° ESE
CZ-2C R/B 2.6 00:47:30 10° NNE 00:51:37 62° NNE 00:51:37 62° NNE
CZ-2C R/B 4.1 00:50:20 10° NNE 00:52:56 36° NE 00:52:56 36° NE
Meteor 1-23 Rocket 4.5 00:51:11 24° S 00:54:46 69° E 01:00:27 10° NNE
Cosmos 1484 Rocket 3.9 00:57:54 10° NNE 01:01:29 40° E 01:02:55 28° SSE
Cosmos 1726 4.2 00:59:43 10° NNE 01:02:54 27° ENE 01:06:04 10° SE
FENGYUN 3A 3.5 01:01:42 10° NNE 01:07:09 82° WNW 01:09:00 43° SSW
Cosmos 1697 Rocket 2.6 01:08:43 60° W 01:09:16 64° WSW 01:14:48 10° S
Cosmos 2154 Rocket 3.8 01:03:32 10° N 01:09:46 79° W 01:15:57 10° S
GEOS 3 Rocket 4.2 01:08:29 10° NE 01:13:31 54° ESE 01:16:55 20° SSW
Cosmos 2278 4.2 01:12:38 10° NNW 01:18:18 60° ENE 01:23:57 10° SE
Sich 1 Rocket 3.7 01:14:11 10° N 01:18:35 75° E 01:22:59 10° SSE
FALCON 9 DEB 4.5 01:19:03 30° NE 01:19:03 30° NE 01:21:36 10° E
Cosmos 1295 Rocket 4.3 01:13:04 10° N 01:19:20 76° W 01:25:28 10° S
Cosmos 2074 Rocket 4.2 01:13:43 10° NNW 01:19:36 44° W 01:25:26 10° SSW
COSMOS 2406 3.5 01:19:34 45° WNW 01:19:59 45° WNW 01:25:33 10° NNE
NOSS 3-1 (C) 4.2 01:12:57 10° NNW 01:20:33 77° NE 01:29:25 10° SE
FALCON 9 DEB 3.9 01:22:24 41° ENE 01:22:24 41° ENE 01:24:53 10° ESE
Cosmos 1300 Rocket 3.4 01:19:25 10° N 01:23:46 87° W 01:28:07 10° S
Cosmos 1125 Rocket 3.6 01:18:34 10° NNW 01:23:47 75° ENE 01:28:58 10° SSE
FALCON 9 DEB 4.2 01:25:17 36° N 01:25:49 39° NNE 01:29:01 10° E
FALCON 9 DEB 4.2 01:27:17 33° NNE 01:27:32 33° NNE 01:30:20 10° E
Cosmos 2208 Rocket 4.4 01:30:02 40° WNW 01:30:17 40° WNW 01:35:12 10° N
Lacrosse 5 4.1 01:28:13 10° NNW 01:31:43 18° NNE 01:35:11 10° ENE
Meteor 2-10 3.8 01:26:46 10° N 01:31:49 84° W 01:36:56 10° S
SME Rocket 4.1 01:25:12 10° S 01:32:57 60° WSW 01:38:05 10° NNW
SL-16 R/B 3.9 01:30:43 10° N 01:35:48 32° NE 01:40:49 10° ESE
Cosmos 2181 Rocket 4.4 01:30:38 10° S 01:36:39 64° E 01:42:47 10° NNE
BREEZE-M DEB (TANK) 2.4 01:37:28 42° NW 01:37:48 44° NNW 01:40:05 10° ENE
Cosmos 1461 3.1 01:38:34 43° W 01:39:33 54° NW 01:43:43 10° NNE
Meteor 1-15 Rocket 4.5 01:34:48 10° NNW 01:40:28 49° W 01:46:07 10° SSW
Cosmos 921 Rocket 4.2 01:43:01 26° NW 01:43:01 26° NW 01:45:57 10° N
PSLV R/B 3.5 01:38:04 10° N 01:42:26 66° WNW 01:46:45 10° SSW
Cosmos 1340 2.5 01:40:27 10° S 01:44:12 85° W 01:47:59 10° N
Cosmos 2082 Rocket 2.5 01:45:12 25° WSW 01:48:08 46° WNW 01:53:39 10° NNE
Cosmos 962 Rocket 4.4 01:46:12 10° NNW 01:52:21 65° W 01:58:33 10° S
Cosmos 2322 Rocket 3.9 01:49:13 10° N 01:54:20 34° ENE 01:59:25 10° ESE
Cosmos 1842 3.6 01:53:05 20° SW 01:55:27 42° WNW 01:59:12 10° N
USA 234 3.8 01:52:25 10° NE 01:58:29 43° NNW 02:02:45 19° W
Meteor 1-31 Rocket 3.7 01:56:36 10° NNE 02:00:19 50° E 02:04:00 10° S
Cosmos 2150 Rocket 4.3 01:56:25 10° NNW 02:01:22 44° WSW 02:06:14 10° S
ATLAS CENTAUR R/B 1.5 01:59:56 24° WSW 02:02:03 49° NW 02:06:10 10° NNE
ARIANE 5 R/B 4.2 02:03:25 10° NNW 02:05:22 13° NW 02:05:22 13° NW
Cosmos 2221 Rocket 4.0 02:02:58 10° SSW 02:07:06 39° WNW 02:11:16 10° N
GP-B 4.2 02:06:29 17° WSW 02:08:24 23° W 02:11:56 10° NNW
COSMO-SKYMED 1 2.9 02:04:15 10° SSE 02:08:33 69° ENE 02:12:53 10° N
Cosmos 2218 Rocket 4.0 02:03:05 10° N 02:09:31 82° W 02:15:54 10° S
Cosmos 2360 Rocket 4.2 02:05:14 10° N 02:10:05 28° NE 02:14:55 10° ESE
Okean 2 Rocket 3.5 02:06:20 10° NNW 02:10:34 40° W 02:14:47 10° SSW
Cosmos 1707 2.7 02:06:57 10° SSW 02:10:49 65° W 02:14:42 10° N
Cosmos 389 Rocket 2.9 02:07:42 10° N 02:11:10 63° E 02:14:38 10° SSE
SL-4 R/B 3.8 02:09:46 12° NW 02:12:39 21° N 02:15:52 10° NE
ATLAS 5 CENTAUR R/B 3.7 02:12:26 17° W 02:14:22 19° WSW 02:18:51 10° SSW
Okean 2 3.5 02:11:18 10° SSW 02:15:15 52° W 02:19:16 10° N
CZ-2C R/B 3.1 02:11:02 10° SSE 02:16:24 69° ENE 02:21:55 10° N
SL-8 Rocket 4.0 02:10:38 10° NNW 02:16:46 60° W 02:22:49 10° S
Cosmos 1833 Rocket 4.3 02:15:19 14° WNW 02:16:59 15° NW 02:20:12 10° N
USA 229 DEB 4.0 02:12:13 10° NW 02:19:41 85° SW 02:27:31 10° SSE
USA 229 4.0 02:12:20 10° NW 02:19:46 85° WSW 02:27:37 10° SSE
Cosmos 1378 Rocket 3.7 02:19:09 10° SSW 02:23:23 49° W 02:27:42 10° N
SJ-12 3.9 02:20:55 10° N 02:24:55 62° WNW 02:28:55 10° SSW
FALCON 9 DEB 3.3 02:23:05 16° WNW 02:25:10 41° SW 02:28:01 10° SSE
Cosmos 405 4.0 02:23:07 10° NW 02:25:54 23° W 02:28:41 10° SW
YAOGAN 6 2.5 02:24:04 10° N 02:27:31 58° WNW 02:30:58 10° SSW
ALOS 3.9 02:25:40 10° NNW 02:28:11 15° WNW 02:30:05 12° W
CZ-2C R/B 4.2 02:28:20 10° NW 02:29:51 11° WNW 02:31:00 11° WNW
Lacrosse 5 rocket 1.6 02:25:49 10° WSW 02:29:56 55° NW 02:34:18 10° NE
Cosmos 1470 3.6 02:27:47 10° NNW 02:31:12 29° W 02:34:34 10° SSW
Cosmos 1980 Rocket 3.2 02:29:20 10° NW 02:33:54 25° WSW 02:38:25 10° SSW
Cosmos 1758 3.5 02:30:15 10° NNW 02:34:07 50° W 02:37:56 10° S
Cosmos 1975 Rocket 3.9 02:30:07 10° S 02:34:24 56° E 02:38:45 10° NNE
Cosmos 1484 Rocket 4.4 02:33:26 10° NNW 02:35:31 14° WNW 02:37:37 10° W
Cosmos 1726 3.6 02:35:20 10° NW 02:37:48 17° W 02:40:16 10° SW
NOSS 3-1 (A) 4.3 02:34:09 10° NW 02:41:50 64° WSW 02:50:36 10° SSE
Meteor PRIRODA 4.4 02:38:56 10° NNE 02:42:36 59° E 02:46:15 10° S
Envisat 3.1 02:37:47 10° N 02:42:46 56° WNW 02:47:42 10° SSW
H-2A R/B 3.2 02:40:21 10° N 02:43:56 38° WNW 02:47:26 10° SW
Cosmos 1953 2.5 02:41:25 10° N 02:45:29 83° E 02:49:30 10° S
Cosmos 44 3.2 02:42:52 10° NNW 02:47:49 86° WSW 02:52:25 10° SSE
COSMOS 2455 3.2 02:42:12 10° SW 02:47:58 46° NW 02:53:47 10° NNE
GEOS 3 Rocket 4.5 02:46:53 10° NNE 02:51:20 30° NW 02:55:42 10° W
